Location: ?ern� Novina
(50.6762°N, 14.8696°E)
Time: 10:51:43
(UTC+00:00)

Cosmos 962 Rocket - Pass Details

Date: 03 March 2021
Orbit: 951 x 999 km, 83.0° (Epoch: 17 April)

Event Time Altitude Azimuth Distance (km) Brightness Sun altitude
Rises 18:08:52 0° 178° (S) 3,643 7.4 -14.0°
Reaches altitude 10° 18:11:21 10° 176° (S) 2,707 6.7 -14.4°
Maximum altitude 18:17:30 69° 95° (E) 1,046 4.4 -15.3°
Drops below altitude 10° 18:23:46 10° 14° (NNE) 2,759 6.8 -16.3°
Sets 18:26:20 0° 12° (NNE) 3,718 7.5 -16.7°
